#timestamp,LO_Frequency,Hit,StdDev 
1502719215.5,286047001.0,P,2.5
1502719235.3,286046998.2,N,2.1
1502719255.2,286046998.7,N,1.8
1502719275.0,286046999.3,N,1.6
1502719275.9,286046999.3,N,1.5
1502719295.8,286046998.6,N,1.4
1502719315.6,286046998.4,N,1.3
1502719335.4,286046998.4,N,1.2
1502719355.3,286047000.9,N,1.4
1502719375.1,286046998.6,N,1.3
1502719395.9,286046999.1,N,1.3
1502719415.7,286046996.6,N,1.3
1502719435.5,286046999.2,N,1.3
1502719455.4,286046997.3,N,1.3
1502719475.2,286046997.8,N,1.3
1502719495.0,286046997.6,N,1.3
1502719496.0,286046997.6,N,1.2
1502719515.8,286046995.0,Y,0.0
1502719535.6,286046997.0,P,0.7
1502719555.5,286046996.7,P,0.8
1502719575.3,286046996.5,P,0.8
1502719595.2,286046997.0,Y,0.0
1502719615.9,286047000.2,P,1.5
1502719635.7,286047000.6,N,1.5
1502719655.6,286046998.6,N,1.4
1502719675.4,286046998.5,N,1.2
1502719695.3,286046998.6,N,1.1
1502719715.1,286046998.8,N,1.1
1502719735.8,286046998.6,N,1.0
1502719755.7,286047001.1,N,1.2
1502719775.5,286047000.8,N,1.2
1502719795.4,286046998.6,N,1.2
1502719815.2,286046998.5,N,1.1
1502719835.0,286046998.8,N,1.1
1502719836.0,286046998.8,N,1.1
1502719855.8,286047000.8,N,1.1
1502719875.6,286046998.8,N,1.1
1502719895.5,286046999.1,N,1.1
1502719915.3,286046998.5,N,1.0
1502719935.1,286046999.0,N,1.0
1502719955.9,286046998.3,N,1.0
1502719975.7,286046998.4,N,1.0
1502719995.6,286046998.4,N,1.0
1502720015.4,286046998.9,N,1.0
1502720035.2,286046999.5,N,0.9
1502720055.1,286046996.8,Y,0.0
1502720056.0,286046996.8,P,1.1
1502720075.8,286046999.1,N,1.1
1502720095.7,286046998.9,N,1.0
1502720115.5,286046999.0,N,0.9
1502720135.3,286046999.0,N,0.8
1502720155.2,286046998.7,N,0.8
1502720175.0,286047000.8,N,1.0
1502720175.9,286047000.8,N,1.1
1502720195.8,286046998.2,N,1.1
1502720215.6,286047001.0,N,1.2
1502720235.4,286046998.2,N,1.2
1502720255.3,286047001.2,N,1.3
1502720275.1,286047000.7,N,1.3
1502720295.8,286047000.8,N,1.3
1502720315.7,286046998.6,N,1.2
1502720335.5,286047001.1,N,1.3
1502720355.4,286046998.3,N,1.3
1502720375.2,286046998.1,N,1.3
1502720395.0,286046998.6,N,1.3
1502720395.9,286046998.6,N,1.2
1502720415.8,286046999.0,N,1.2
1502720435.6,286046998.1,N,1.2
1502720455.5,286046998.2,N,1.2
1502720475.3,286046998.2,N,1.2
1502720495.1,286047001.1,N,1.2
1502720515.9,286047000.1,N,1.2
1502720535.7,286046999.7,N,1.2
1502720555.6,286047002.3,N,1.3
1502720575.4,286047002.4,N,1.4
1502720595.2,286047002.3,N,1.5
1502720615.1,286047002.4,N,1.5
1502720616.0,286047002.4,N,1.5
1502720635.8,286046999.7,N,1.5
1502720655.6,286047001.9,N,1.5
1502720675.5,286047002.7,N,1.6
1502720695.3,286046999.8,N,1.6
1502720715.2,286047002.2,N,1.6
1502720735.0,286047002.8,N,1.7
1502720735.9,286047002.8,N,1.7
1502720755.8,286047002.5,N,1.7
1502720775.6,286047002.1,N,1.7
1502720795.4,286047001.6,N,1.7
1502720815.3,286047001.7,N,1.7
1502720835.1,286047004.2,N,1.8
1502720855.8,286047004.3,N,1.9
1502720875.7,286047003.9,N,2.0
1502720895.5,286047004.0,N,2.0
1502720915.4,286047004.3,N,1.9
1502720935.2,286047004.4,N,1.9
1502720955.0,286047004.0,N,1.9
1502720955.9,286047004.0,N,1.9
1502720975.8,286047003.7,N,1.7
1502720995.6,286047001.4,N,1.6
1502721015.5,286047003.9,N,1.4
1502721035.3,286047004.0,N,1.4
1502721055.1,286047003.9,N,1.3
1502721075.9,286047004.1,Y,0.0
1502721095.7,286047000.0,P,1.4
1502721115.6,286047000.1,N,1.3
1502721135.4,286047001.5,N,1.1
1502721155.2,286047002.3,N,1.1
1502721175.1,286047001.4,N,1.0
1502721176.0,286047001.4,N,0.9
1502721195.8,286047002.5,N,1.0
1502721215.7,286047002.4,N,0.9
1502721235.5,286047002.7,N,1.0
1502721255.3,286047002.7,N,1.0
1502721275.2,286047002.4,N,0.9
1502721295.0,286046999.7,N,1.1
1502721295.9,286046999.7,N,1.1
1502721315.8,286047002.2,N,1.1
1502721335.6,286047002.1,N,1.1
1502721355.4,286047002.2,N,1.1
1502721375.3,286047002.0,N,1.0
1502721395.1,286047001.8,N,1.0
1502721415.9,286047004.4,Y,0.0
1502721435.7,286047000.1,P,0.8
1502721455.5,286047002.4,P,1.0
1502721475.4,286047000.4,N,0.9
1502721495.2,286046999.7,N,1.0
1502721515.1,286047002.3,N,1.1
1502721516.0,286047002.3,N,1.1
1502721535.8,286047002.6,N,1.1
1502721555.6,286047002.3,N,1.1
1502721575.5,286047002.2,N,1.0
1502721595.3,286047002.2,N,1.0
1502721615.2,286047002.2,N,1.0
1502721635.9,286047001.9,N,0.9
1502721655.7,286047002.3,N,0.9
1502721675.6,286047002.6,N,0.9
1502721695.4,286047002.6,N,0.9
1502721715.2,286047011.9,Y,0.0
1502721735.1,286046998.1,P,1.9
1502721736.0,286046998.1,N,1.8
1502721755.8,286046998.1,N,1.6
1502721775.7,286047000.7,N,1.6
1502721795.5,286046998.1,N,1.5
1502721815.3,286047000.5,N,1.5
1502721835.2,286047000.7,N,1.5
1502721855.0,286046999.9,N,1.4
1502721855.9,286046999.9,N,1.3
1502721875.8,286047000.2,N,1.3
1502721895.6,286047000.2,N,1.2
1502721915.4,286047000.2,N,1.2
1502721935.3,286047000.2,N,1.2
1502721955.1,286047000.5,N,1.1
1502721975.9,286046999.9,N,1.1
1502721995.7,286047000.4,N,1.1
1502722015.5,286046999.9,N,1.0
1502722035.4,286047000.0,N,1.0
1502722055.2,286047002.5,N,1.1
1502722075.0,286046999.7,N,1.1
1502722076.0,286046999.7,N,1.1
1502722095.8,286047002.4,N,1.2
1502722115.6,286047002.6,N,1.3
1502722135.5,286046999.8,N,1.2
1502722155.3,286046999.8,N,1.2
1502722175.1,286047002.5,N,1.3
1502722195.9,286047001.9,N,1.3
1502722215.7,286047001.9,N,1.3
1502722235.6,286047001.8,N,1.3
1502722255.4,286047001.8,N,1.3
1502722275.2,286046999.7,N,1.2
1502722295.1,286047000.4,N,1.2
1502722296.0,286047000.4,N,1.1
1502722315.8,286047000.4,N,1.1
1502722335.7,286047002.2,N,1.0
1502722355.5,286047001.8,N,1.0
1502722375.3,286047001.8,N,1.0
1502722395.2,286047001.8,N,1.0
1502722415.0,286047003.9,Y,0.0
1502722415.9,286047003.9,P,1.5
1502722435.8,286047002.1,N,1.2
1502722455.6,286047002.5,N,1.1
1502722475.4,286047002.5,N,1.0
1502722495.3,286047002.1,N,0.9
1502722515.1,286047002.1,N,0.8
1502722535.9,286047001.9,N,0.8
1502722555.7,286046999.8,N,1.1
1502722575.5,286047002.8,N,1.0
1502722595.4,286047002.4,N,1.0
1502722615.2,286047001.3,N,1.0
1502722635.1,286047002.8,N,1.0
1502722636.0,286047002.8,N,0.9
1502722655.8,286047002.3,N,0.9
1502722675.6,286047001.8,N,0.9
1502722695.5,286047001.6,N,0.9
1502722715.3,286047002.0,N,0.8
1502722735.2,286047002.0,N,0.8
1502722755.9,286047001.5,N,0.8
1502722775.7,286047001.5,N,0.8
1502722795.6,286047001.3,N,0.8
